      4   23 28.58  +66 00.2    0.758   1.524   48.5/135    120.6   34.1   15.9

      5   23 34.10  +65 25.7    0.764   1.534   48.6/136    121.3   33.5   16.1

      6   23 39.41  +64 50.5    0.770   1.544   48.6/137    122.0   33.0   16.3

      7   23 44.52  +64 14.8    0.776   1.554   48.6/138    122.8   32.4   16.4

      8   23 49.44  +63 38.5    0.782   1.564   48.6/139    123.4   31.9   16.6

      9   23 54.16  +63 01.7    0.789   1.575   48.6/139    124.1   31.4   16.7

     10   23 58.72  +62 24.6    0.796   1.585   48.5/140    124.8   30.9   16.9

     11   00 03.10  +61 47.1    0.803   1.595   48.4/141    125.4   30.4   17.1

     12   00 07.33  +61 09.3    0.810   1.606   48.3/141    126.0   29.9   17.2

     13   00 11.41  +60 31.3    0.817   1.616   48.1/142    126.6   29.4   17.4

     14   00 15.34  +59 53.2    0.825   1.627   47.9/143    127.2   29.0   17.5

     15   00 19.14  +59 14.9    0.833   1.637   47.7/143    127.7   28.6   17.7

     16   00 22.82  +58 36.6    0.841   1.648   47.5/143    128.2   28.2   17.9

     17   00 26.37  +57 58.2    0.850   1.658   47.2/144    128.6   27.8   18.0

     18   00 29.81  +57 20.0    0.859   1.669   46.9/144    129.1   27.4   18.2

     19   00 33.15  +56 41.8    0.868   1.679   46.6/144    129.5   27.0   18.3

     20   00 36.38  +56 03.7    0.877   1.690   46.2/145    129.9   26.7   18.5

     21   00 39.52  +55 25.8    0.886   1.701   45.9/145    130.2   26.3   18.7

     22   00 42.57  +54 48.1    0.896   1.711   45.5/145    130.5   26.0   18.8

     23   00 45.54  +54 10.7    0.906   1.722   45.1/145    130.8   25.7   19.0

     24   00 48.42  +53 33.6    0.917   1.733   44.6/145    131.0   25.5   19.1

     25   00 51.23  +52 56.7    0.927   1.744   44.2/145    131.2   25.2   19.3

     26   00 53.97  +52 20.3    0.938   1.754   43.7/145    131.4   25.0   19.5

     27   00 56.64  +51 44.2    0.949   1.765   43.2/145    131.5   24.7   19.6

     28   00 59.25  +51 08.5    0.961   1.776   42.7/145    131.6   24.5   19.8

     29   01 01.80  +50 33.2    0.972   1.787   42.2/145    131.7   24.4   19.9

     30   01 04.29  +49 58.3    0.984   1.798   41.7/145    131.7   24.2   20.1

Dec.  1   01 06.73  +49 24.0    0.996   1.809   41.2/145    131.7   24.0   20.3

                    m1 =  7.4 + 5 log △ + 50.0 log r

NAKANO

         **** Don't distribute anyone except personal use only ****

                (C) Copyright 2006 OAA/ComputingSection

write mail from CFAD0::NAKANO on 2006-10-03 00:36:16(JST).

 

 177P/Barnard 2 

Epoch 2006 Aug. 13.0 TT = JDT 2453960.5  

T 2006 Aug. 28.68828 TT                                 Nakano

q   1.1072163            (2000.0)            P               Q

n   0.00823844     Peri.   60.46064     +0.76133696     +0.38998890

a  24.2794832      Node   272.06644     -0.60679497     +0.71001186

e   0.9543970      Incl.   31.21758     +0.22839855     +0.58633763

P 119.64

From 661 observations 1889-2006, mean residual 0".56.

NAKANO

         **** Don't distribute anyone except personal use only ****

                (C) Copyright 2006 OAA/ComputingSection

write mail from CFAD0::NAKANO on 2006-07-30 06:01:24(JST).



◎177Pの予報位置です    [From 天ガ2006年8月号情報BOX]



●遠来からの珍客,バーナード第2周期彗星を観測しよう

 「彗星ガイド」で紹介したとおり,周期が約120年のこの彗星が1889年の出現以

来,初めて回帰し,再発見されました.この彗星は,前回1889年の出現時,6月

23日にアンドロメダ座に9等級で発見されました.このとき,彗星は,すでにそ

の近日点を6月21日に通過していました.つまり,彗星は,近日点通過後に発見

されたことになります.当時の観測によると,彗星は,7月5日に10等級,8月

1日には淡く減光し11等級,同月6日のバーナードの観測によるとその眼視等級

は,12等級であったと報告されています.これらの観測から,彗星は,その近日

点通過直後にH10=8.8等であった標準等級が,8月にはH10=10等〜11等級に減光し

ていったことが推測されていました.彗星と地球との位置関係は,発見前の5月

30日に地球に1.006 AUに接近し,発見時には地球と彗星の距離は1.09 AUと多少増

加していました.なお,Hは彗星の標準等級,添字の10は彗星の光度予報式中のl

ogr(rは日心距離)の係数で,発光度係数(k)と呼ばれ,一般に彗星の光度

予報にはk=10かk=15が採用されます.

 今回の回帰では,彗星は,8月28日にその近日点を通ります.LINEARサーベイ

で彗星が発見されたのは,偶然にも6月23日,1889年と同じ日のできごとでした.

発見時に,彗星は,すでに地球に0.50 AUまで接近していました.しかし,そのと

きの彗星のCCD全光度は17.1等でした.一般に,CCD全光度は,眼視光度より1.5等

級から2等級ほど暗く見積もられます.しかし,それを考慮しても彗星は,発見

時15等級となります.一方,1889年出現時の観測光度から今回の発見時の彗星の

光度を推測すると,9等級となります.つまり,今回の発見光度は予報より6等

級も暗いことになるわけです.なお,「彗星ガイド」p.157の経路図にあるとおり

,今回の回帰では,彗星は,7月19日に地球に0.366 AUまで接近し,8月には,

北天へと大きく動いて行きます.

 さて,彗星の前回での地球への接近距離は1.00 AU,今回は0.37 AUまで接近し

ます.そのため,地球から見た彗星の光量差は7倍以上あります.単純に考えて

も,前回の出現で9等級であったのなら,今回は,少なくとも2等級明るく見え,

7等級になるはずです.彗星は,1回しか公転していません.従って,その本体

に大きな変化があったとは考えられません.ということは,この彗星は,多くの

彗星にありがちな近日点近くで急激に明るくなる彗星の1つであることが考えら

れます.

 最近の光度観測から,その推測が正しいことがわかります.彗星の全光度は,

CCD全光度より1.5等級明るいと考えて,発見時から7月上旬まで全光度で13等〜

14等級であったものと考えられます.しかし,彗星は,7月中旬には10等級,7

月20日前後には8等級まで,急激に明るくなっています.この光度上昇の状況を

図に示します.図では,発見直後のCCD全光度を1.5等級明るく設定しています.

この影響で,8月下旬の予報光度は約1等級暗くなります.これらの観測から推

測される彗星の標準等級はH59= 6.1等となります.そして,予想どおり,明るく

なれば,その近日点通過時の8月下旬頃に7等級前半に明るくなることが期待で

きます.この明るさは,上で推定した1889年出現時の光度から推定された光度(

7等級)と良く一致しています.従って,彗星の状態に何かの大きな変化がない

限り,彗星が7等級まで明るくなるのは,まちがいないでしょう.

 ただし,現在までの報告では,彗星核は,鮮明なもののその周囲には,大きく

拡散したコマが見られます.このため,双眼鏡等の小さな機材で明るく見えてい

るようです.幸いにも,彗星がもっとも明るくなる8月下旬は新月で,その近日

点通過時も北天りゅう座近くに観測できます.ぜひ,遠来のこの彗星をながめて

ください.



                                地心    日心   日々運動     太陽           光度  月からの

2006年      赤経 (2000) 赤緯    距離    距離    量  /方向     離角   位相角   m1   離角 月齢

 21h JST    h  m       。  ,        AU      AU     ,     。      。      。      等     。    。

Aug.  5   16 52.43  +34 22.4    0.406   1.167   70.7/358    101.7   58.3    8.1   63  .80

      6   16 52.20  +35 33.1    0.410   1.162   68.9/358    100.6   59.1    8.0   67  .88

      7   16 52.04  +36 42.0    0.415   1.157   67.2/359     99.5   59.8    7.9   73  .94

      8   16 51.92  +37 49.2    0.419   1.153   65.5/359     98.5   60.4    7.9   79  .99

      9   16 51.86  +38 54.7    0.423   1.149   63.8/360     97.5   61.0    7.8   86 1.00 ○

     10   16 51.85  +39 58.4    0.428   1.144   62.2/  0     96.6   61.6    7.7   92  .98

     11   16 51.90  +41 00.6    0.432   1.141   60.6/  1     95.7   62.1    7.6   98  .94

     12   16 52.00  +42 01.2    0.437   1.137   59.1/  2     94.9   62.6    7.6  103  .87

     13   16 52.15  +43 00.2    0.441   1.133   57.6/  2     94.1   63.1    7.5  106  .78

     14   16 52.36  +43 57.8    0.446   1.130   56.2/  3     93.3   63.5    7.5  108  .67

     15   16 52.62  +44 53.8    0.451   1.127   54.8/  3     92.6   63.9    7.4  109  .56

     16   16 52.94  +45 48.5    0.455   1.124   53.5/  4     91.9   64.2    7.4  108  .45 下弦

     17   16 53.31  +46 41.8    0.460   1.122   52.2/  5     91.3   64.5    7.4  106  .35

     18   16 53.74  +47 33.8    0.465   1.119   51.0/  5     90.7   64.7    7.3  103  .25

     19   16 54.22  +48 24.6    0.470   1.117   49.8/  6     90.2   65.0    7.3  100  .17

     20   16 54.77  +49 14.1    0.474   1.115   48.7/  7     89.6   65.2    7.3   97  .10

     21   16 55.37  +50 02.5    0.479   1.113   47.6/  8     89.2   65.3    7.2   93  .05

     22   16 56.03  +50 49.7    0.484   1.112   46.6/  8     88.7   65.5    7.2   90  .02

     23   16 56.76  +51 35.8    0.489   1.110   45.7/  9     88.3   65.6    7.2   87  .00

     24   16 57.54  +52 20.9    0.493   1.109   44.8/ 10     88.0   65.6    7.2   84  .00 ●

     25   16 58.40  +53 05.0    0.498   1.108   43.9/ 11     87.6   65.7    7.2   83  .03

     26   16 59.32  +53 48.1    0.503   1.108   43.1/ 12     87.4   65.7    7.2   81  .06

     27   17 00.30  +54 30.3    0.507   1.107   42.3/ 12     87.1   65.7    7.2   81  .12

     28   17 01.36  +55 11.6    0.512   1.107   41.5/ 13     86.9   65.6    7.3   81  .19

     29   17 02.49  +55 52.0    0.517   1.107   40.8/ 14     86.7   65.6    7.3   81  .27

     30   17 03.69  +56 31.6    0.521   1.108   40.2/ 15     86.5   65.5    7.3   82  .36

     31   17 04.97  +57 10.4    0.526   1.108   39.6/ 16     86.4   65.4    7.3   84  .45

Sept. 1   17 06.33  +57 48.4    0.530   1.109   39.0/ 17     86.3   65.3    7.4   86  .56 上弦

      2   17 07.77  +58 25.7    0.534   1.110   38.4/ 18     86.2   65.1    7.4   88  .66

      3   17 09.30  +59 02.2    0.539   1.111   37.9/ 19     86.1   64.9    7.5   90  .76

      4   17 10.92  +59 38.1    0.543   1.113   37.4/ 20     86.1   64.7    7.5   92  .85

      5   17 12.63  +60 13.2    0.547   1.114   37.0/ 21     86.1   64.5    7.6   93  .92

NAKANO         **** Don't distribute anyone except personal use only ****

                (C) Copyright 2006 OAA/ComputingSection

write mail from CFAD0::NAKANO on 2006-07-27 02:18:11(JST).

 



 

177P/1889 M1 = 2006 M3 (Barnard 2)

Epoch 2006 Aug. 13.0 TT = JDT 2453960.5  

T 2006 Aug. 28.68836 TT                                 Nakano

q   1.1072131            (2000.0)            P               Q

n   0.00823844     Peri.   60.46088     +0.76133957     +0.38998606

a  24.2794803      Node   272.06645     -0.60679125     +0.71001482

e   0.9543972      Incl.   31.21747     +0.22839972     +0.58633593

P 119.64

From 275 observations 1889-2006, mean residual 0".63.

NAKANO

         **** Don't distribute anyone except personal use only ****

                (C) Copyright 2006 OAA/ComputingSection

write mail from CFAD0::NAKANO on 2006-07-20 23:22:32(JST).

 



戻ります。